Time,TemperatureF,DewpointF,PressureIn,WindDirection,WindDirectionDegrees,WindSpeedMPH,WindSpeedGustMPH,Humidity,HourlyPrecipIn,Conditions,Clouds,dailyrainin,SoftwareType,DateUTC
2013-11-04 00:02:00,42.4,0.0,30.23,ESE,106,0.0,0.0,0,0.00,CLR,,0.00,WeatherDisplay:10.37,2013-11-04 06:02:00,
2013-11-04 00:07:00,42.3,0.0,30.24,ESE,106,0.0,0.0,0,0.00,CLR,,0.00,WeatherDisplay:10.37,2013-11-04 06:07:00,
2013-11-04 00:12:00,42.4,0.0,30.23,ESE,106,0.0,0.0,0,0.00,CLR,,0.00,WeatherDisplay:10.37,2013-11-04 06:12:00,
2013-11-04 00:17:00,42.4,0.0,30.24,ESE,106,0.0,0.0,0,0.00,CLR,,0.00,WeatherDisplay:10.37,2013-11-04 06:17:00,
2013-11-04 00:22:00,42.4,0.0,30.24,ESE,106,0.0,0.0,0,0.00,CLR,,0.00,WeatherDisplay:10.37,2013-11-04 06:22:00,
2013-11-04 00:27:00,42.4,0.0,30.24,ESE,106,0.0,0.0,0,0.00,CLR,,0.00,WeatherDisplay:10.37,2013-11-04 06:27:00,
2013-11-04 00:32:00,42.5,0.0,30.25,ESE,106,0.0,0.0,0,0.00,CLR,,0.00,WeatherDisplay:10.37,2013-11-04 06:32:00,
2013-11-04 00:37:00,42.4,0.0,30.25,ESE,106,0.0,0.0,0,0.00,CLR,,0.00,WeatherDisplay:10.37,2013-11-04 06:37:00,
2013-11-04 00:42:00,42.5,0.0,30.24,ESE,106,0.0,0.0,0,0.00,CLR,,0.00,WeatherDisplay:10.37,2013-11-04 06:42:00,
2013-11-04 00:47:00,42.5,0.0,30.24,ESE,106,0.0,0.0,0,0.00,CLR,,0.00,WeatherDisplay:10.37,2013-11-04 06:47:00,
2013-11-04 00:52:00,42.7,0.0,30.24,ESE,106,0.0,0.0,0,0.00,CLR,,0.00,WeatherDisplay:10.37,2013-11-04 06:52:00,
2013-11-04 00:57:00,42.7,0.0,30.24,ESE,106,0.0,0.0,0,0.00,CLR,,0.00,WeatherDisplay:10.37,2013-11-04 06:57:00,
2013-11-04 01:02:00,42.6,0.0,30.24,ESE,106,0.0,0.0,0,0.00,CLR,,0.00,WeatherDisplay:10.37,2013-11-04 07:02:00,
2013-11-04 01:07:00,42.5,0.0,30.24,ESE,106,0.0,0.0,0,0.00,CLR,,0.00,WeatherDisplay:10.37,2013-11-04 07:07:00,
2013-11-04 01:12:00,42.5,0.0,30.25,ESE,106,0.0,0.0,0,0.00,CLR,,0.00,WeatherDisplay:10.37,2013-11-04 07:12:00,
2013-11-04 01:17:00,42.5,0.0,30.25,ESE,106,0.0,0.0,0,0.00,CLR,,0.00,WeatherDisplay:10.37,2013-11-04 07:17:00,
2013-11-04 01:22:00,42.6,0.0,30.25,ESE,106,0.0,0.0,0,0.00,CLR,,0.00,WeatherDisplay:10.37,2013-11-04 07:22:00,
2013-11-04 01:27:00,42.6,0.0,30.25,ESE,106,0.0,0.0,0,0.00,CLR,,0.00,WeatherDisplay:10.37,2013-11-04 07:27:00,
2013-11-04 01:32:00,42.6,0.0,30.25,ESE,106,0.0,0.0,0,0.00,CLR,,0.00,WeatherDisplay:10.37,2013-11-04 07:32:00,
2013-11-04 01:37:00,42.8,0.0,30.25,ESE,106,0.0,0.0,0,0.00,CLR,,0.00,WeatherDisplay:10.37,2013-11-04 07:37:00,
2013-11-04 01:42:00,42.9,0.0,30.25,ESE,106,0.0,0.0,0,0.00,CLR,,0.00,WeatherDisplay:10.37,2013-11-04 07:42:00,
2013-11-04 01:47:00,43.2,0.0,30.25,ESE,106,0.0,0.0,0,0.00,CLR,,0.00,WeatherDisplay:10.37,2013-11-04 07:47:00,
2013-11-04 01:52:00,43.3,0.0,30.25,ESE,106,0.0,0.0,0,0.00,CLR,,0.00,WeatherDisplay:10.37,2013-11-04 07:52:00,
2013-11-04 01:57:00,43.4,0.0,30.25,ESE,106,0.0,0.0,0,0.00,CLR,,0.00,WeatherDisplay:10.37,2013-11-04 07:57:00,
2013-11-04 02:02:00,43.3,0.0,30.24,ESE,106,0.0,0.0,0,0.00,CLR,,0.00,WeatherDisplay:10.37,2013-11-04 08:02:00,
2013-11-04 02:07:00,43.5,0.0,30.24,ESE,106,0.0,0.0,0,0.00,CLR,,0.00,WeatherDisplay:10.37,2013-11-04 08:07:00,
2013-11-04 02:12:00,43.7,0.0,30.24,ESE,106,0.0,0.0,0,0.00,CLR,,0.00,WeatherDisplay:10.37,2013-11-04 08:12:00,
2013-11-04 02:17:00,43.6,0.0,30.23,ESE,106,0.0,0.0,0,0.00,CLR,,0.00,WeatherDisplay:10.37,2013-11-04 08:17:00,
2013-11-04 02:22:00,43.7,0.0,30.23,ESE,106,0.0,0.0,0,0.00,CLR,,0.00,WeatherDisplay:10.37,2013-11-04 08:22:00,
2013-11-04 02:27:00,43.9,0.0,30.23,ESE,106,0.0,0.0,0,0.00,CLR,,0.00,WeatherDisplay:10.37,2013-11-04 08:27:00,
2013-11-04 02:32:00,43.9,0.0,30.23,ESE,106,0.0,0.0,0,0.00,CLR,,0.00,WeatherDisplay:10.37,2013-11-04 08:32:00,
2013-11-04 02:37:00,43.9,0.0,30.23,ESE,106,0.0,0.0,0,0.00,CLR,,0.00,WeatherDisplay:10.37,2013-11-04 08:37:00,
2013-11-04 02:42:00,43.9,0.0,30.23,ESE,106,0.0,0.0,0,0.00,CLR,,0.00,WeatherDisplay:10.37,2013-11-04 08:42:00,
2013-11-04 02:47:00,43.9,0.0,30.23,ESE,106,0.0,0.0,0,0.00,CLR,,0.00,WeatherDisplay:10.37,2013-11-04 08:47:00,
2013-11-04 02:52:00,43.8,0.0,30.23,ESE,106,0.0,0.0,0,0.00,CLR,,0.00,WeatherDisplay:10.37,2013-11-04 08:52:00,
2013-11-04 02:57:00,43.9,0.0,30.24,ESE,106,0.0,0.0,0,0.00,CLR,,0.00,WeatherDisplay:10.37,2013-11-04 08:57:00,
2013-11-04 03:02:00,43.9,0.0,30.24,ESE,106,0.0,0.0,0,0.00,CLR,,0.00,WeatherDisplay:10.37,2013-11-04 09:02:00,
2013-11-04 03:07:00,43.9,0.0,30.24,ESE,106,0.0,0.0,0,0.00,CLR,,0.00,WeatherDisplay:10.37,2013-11-04 09:07:00,
2013-11-04 03:12:00,44.0,0.0,30.23,ESE,106,0.0,0.0,0,0.00,CLR,,0.00,WeatherDisplay:10.37,2013-11-04 09:12:00,
2013-11-04 03:17:00,44.0,0.0,30.24,ESE,106,0.0,0.0,0,0.00,CLR,,0.00,WeatherDisplay:10.37,2013-11-04 09:17:00,
2013-11-04 03:22:00,43.9,0.0,30.23,ESE,106,0.0,0.0,0,0.00,CLR,,0.00,WeatherDisplay:10.37,2013-11-04 09:22:00,
2013-11-04 03:27:00,43.9,0.0,30.24,ESE,106,0.0,0.0,0,0.00,CLR,,0.00,WeatherDisplay:10.37,2013-11-04 09:27:00,
2013-11-04 03:32:00,43.9,0.0,30.24,ESE,106,0.0,0.0,0,0.00,CLR,,0.00,WeatherDisplay:10.37,2013-11-04 09:32:00,
2013-11-04 03:37:00,43.8,0.0,30.24,ESE,106,0.0,0.0,0,0.00,CLR,,0.00,WeatherDisplay:10.37,2013-11-04 09:37:00,
2013-11-04 03:42:00,43.8,0.0,30.24,ESE,106,0.0,0.0,0,0.00,CLR,,0.00,WeatherDisplay:10.37,2013-11-04 09:42:00,
2013-11-04 03:47:00,43.7,0.0,30.23,ESE,106,0.0,0.0,0,0.00,CLR,,0.00,WeatherDisplay:10.37,2013-11-04 09:47:00,
2013-11-04 03:52:00,43.7,0.0,30.24,ESE,106,0.0,0.0,0,0.00,CLR,,0.00,WeatherDisplay:10.37,2013-11-04 09:52:00,
2013-11-04 03:57:00,44.0,0.0,30.24,ESE,106,0.0,0.0,0,0.00,CLR,,0.00,WeatherDisplay:10.37,2013-11-04 09:57:00,
2013-11-04 04:02:00,44.0,0.0,30.24,ESE,106,0.0,0.0,0,0.00,CLR,,0.00,WeatherDisplay:10.37,2013-11-04 10:02:00,
2013-11-04 04:07:00,44.1,0.0,30.24,ESE,106,0.0,0.0,0,0.00,CLR,,0.00,WeatherDisplay:10.37,2013-11-04 10:07:00,
2013-11-04 04:12:00,43.9,0.0,30.24,ESE,106,0.0,0.0,0,0.00,CLR,,0.00,WeatherDisplay:10.37,2013-11-04 10:12:00,
2013-11-04 04:17:00,44.2,0.0,30.23,ESE,106,0.0,0.0,0,0.00,CLR,,0.00,WeatherDisplay:10.37,2013-11-04 10:17:00,
2013-11-04 04:22:00,44.3,0.0,30.23,ESE,106,0.0,0.0,0,0.00,CLR,,0.00,WeatherDisplay:10.37,2013-11-04 10:22:00,
2013-11-04 04:27:00,44.4,0.0,30.23,South,179,4.8,4.8,0,0.00,CLR,,0.00,WeatherDisplay:10.37,2013-11-04 10:27:00,
2013-11-04 04:32:00,44.5,0.0,30.23,South,179,4.6,4.6,0,0.00,CLR,,0.00,WeatherDisplay:10.37,2013-11-04 10:32:00,
2013-11-04 04:37:00,44.6,0.0,30.23,East,93,8.1,8.1,0,0.00,CLR,,0.00,WeatherDisplay:10.37,2013-11-04 10:37:00,
2013-11-04 04:42:00,44.7,0.0,30.22,ESE,116,0.0,0.0,0,0.00,CLR,,0.00,WeatherDisplay:10.37,2013-11-04 10:42:00,
2013-11-04 04:47:00,44.6,0.0,30.22,ESE,116,0.0,0.0,0,0.00,CLR,,0.00,WeatherDisplay:10.37,2013-11-04 10:47:00,
2013-11-04 04:52:00,44.8,0.0,30.22,ESE,116,0.0,0.0,0,0.00,CLR,,0.00,WeatherDisplay:10.37,2013-11-04 10:52:00,
2013-11-04 04:57:00,44.7,0.0,30.23,ESE,116,0.0,0.0,0,0.00,CLR,,0.00,WeatherDisplay:10.37,2013-11-04 10:57:00,
2013-11-04 05:02:00,44.6,0.0,30.23,SSW,195,0.0,0.0,0,0.00,CLR,,0.00,WeatherDisplay:10.37,2013-11-04 11:02:00,
2013-11-04 05:07:00,44.6,0.0,30.22,SSW,195,0.0,0.0,0,0.00,CLR,,0.00,WeatherDisplay:10.37,2013-11-04 11:07:00,
2013-11-04 05:12:00,44.6,0.0,30.22,SSW,195,0.0,0.0,0,0.00,CLR,,0.00,WeatherDisplay:10.37,2013-11-04 11:12:00,
2013-11-04 05:14:00,44.6,0.0,30.22,SSW,195,0.0,0.0,0,0.00,CLR,,0.00,WeatherDisplay:10.37,2013-11-04 11:14:00,
2013-11-04 05:19:00,44.6,0.0,30.23,SSW,195,0.0,0.0,0,0.00,CLR,,0.00,WeatherDisplay:10.37,2013-11-04 11:19:00,
2013-11-04 05:22:00,44.6,0.0,30.23,SSW,195,0.0,0.0,0,0.00,CLR,,0.00,WeatherDisplay:10.37,2013-11-04 11:22:00,
2013-11-04 05:27:00,44.6,0.0,30.23,East,93,0.0,0.0,0,0.00,CLR,,0.00,WeatherDisplay:10.37,2013-11-04 11:27:00,
2013-11-04 05:32:00,44.5,0.0,30.23,East,93,0.0,0.0,0,0.00,CLR,,0.00,WeatherDisplay:10.37,2013-11-04 11:32:00,
2013-11-04 05:37:00,44.5,0.0,30.23,ESE,109,5.8,5.8,0,0.00,CLR,,0.00,WeatherDisplay:10.37,2013-11-04 11:37:00,
2013-11-04 05:42:00,44.7,0.0,30.23,East,97,5.8,5.8,0,0.00,CLR,,0.00,WeatherDisplay:10.37,2013-11-04 11:42:00,
2013-11-04 05:47:00,44.6,0.0,30.23,SSW,192,0.0,0.0,0,0.00,CLR,,0.00,WeatherDisplay:10.37,2013-11-04 11:47:00,
2013-11-04 05:52:00,44.6,0.0,30.24,SSW,192,0.0,0.0,0,0.00,CLR,,0.00,WeatherDisplay:10.37,2013-11-04 11:52:00,
2013-11-04 05:57:00,44.4,0.0,30.24,East,99,0.0,0.0,0,0.00,CLR,,0.00,WeatherDisplay:10.37,2013-11-04 11:57:00,
2013-11-04 06:02:00,44.5,0.0,30.24,East,99,0.0,0.0,0,0.00,CLR,,0.00,WeatherDisplay:10.37,2013-11-04 12:02:00,
2013-11-04 06:07:00,44.4,0.0,30.24,East,99,0.0,0.0,0,0.00,CLR,,0.00,WeatherDisplay:10.37,2013-11-04 12:07:00,
2013-11-04 06:12:00,44.3,0.0,30.24,East,99,0.0,0.0,0,0.00,CLR,,0.00,WeatherDisplay:10.37,2013-11-04 12:12:00,
2013-11-04 06:17:00,44.2,0.0,30.24,East,99,0.0,0.0,0,0.00,CLR,,0.00,WeatherDisplay:10.37,2013-11-04 12:17:00,
2013-11-04 06:22:00,44.2,0.0,30.24,East,99,0.0,0.0,0,0.00,CLR,,0.00,WeatherDisplay:10.37,2013-11-04 12:22:00,
2013-11-04 06:27:00,43.9,0.0,30.24,East,99,0.0,0.0,0,0.00,CLR,,0.00,WeatherDisplay:10.37,2013-11-04 12:27:00,
2013-11-04 06:32:00,43.8,0.0,30.25,East,95,0.0,0.0,0,0.00,CLR,,0.00,WeatherDisplay:10.37,2013-11-04 12:32:00,
2013-11-04 06:37:00,43.8,0.0,30.24,East,95,0.0,0.0,0,0.00,CLR,,0.00,WeatherDisplay:10.37,2013-11-04 12:37:00,
2013-11-04 06:42:00,43.8,0.0,30.23,East,95,0.0,0.0,0,0.00,CLR,,0.00,WeatherDisplay:10.37,2013-11-04 12:42:00,
2013-11-04 06:47:00,43.6,0.0,30.24,East,95,0.0,0.0,0,0.00,CLR,,0.00,WeatherDisplay:10.37,2013-11-04 12:47:00,
2013-11-04 06:52:00,43.8,0.0,30.24,East,95,0.0,0.0,0,0.00,CLR,,0.00,WeatherDisplay:10.37,2013-11-04 12:52:00,
2013-11-04 06:57:00,43.8,0.0,30.24,East,95,0.0,0.0,0,0.00,CLR,,0.00,WeatherDisplay:10.37,2013-11-04 12:57:00,
2013-11-04 07:02:00,44.0,0.0,30.24,East,95,0.0,0.0,0,0.00,CLR,,0.00,WeatherDisplay:10.37,2013-11-04 13:02:00,
2013-11-04 07:07:00,44.0,0.0,30.24,East,95,0.0,0.0,0,0.00,CLR,,0.00,WeatherDisplay:10.37,2013-11-04 13:07:00,
2013-11-04 07:12:00,44.2,0.0,30.24,East,95,0.0,0.0,0,0.00,CLR,,0.00,WeatherDisplay:10.37,2013-11-04 13:12:00,
2013-11-04 07:17:00,44.3,0.0,30.23,East,95,0.0,0.0,0,0.00,CLR,,0.00,WeatherDisplay:10.37,2013-11-04 13:17:00,
2013-11-04 07:22:00,44.5,0.0,30.23,East,95,0.0,0.0,0,0.00,CLR,,0.00,WeatherDisplay:10.37,2013-11-04 13:22:00,
2013-11-04 07:27:00,44.6,0.0,30.23,East,95,0.0,0.0,0,0.00,CLR,,0.00,WeatherDisplay:10.37,2013-11-04 13:27:00,
2013-11-04 07:32:00,44.7,0.0,30.23,East,95,0.0,0.0,0,0.00,CLR,,0.00,WeatherDisplay:10.37,2013-11-04 13:32:00,
2013-11-04 07:37:00,44.7,0.0,30.23,East,95,0.0,0.0,0,0.00,CLR,,0.00,WeatherDisplay:10.37,2013-11-04 13:37:00,
2013-11-04 07:42:00,44.7,0.0,30.23,East,95,0.0,0.0,0,0.00,CLR,,0.00,WeatherDisplay:10.37,2013-11-04 13:42:00,
2013-11-04 07:47:00,44.8,0.0,30.23,ESE,103,5.8,5.8,0,0.00,CLR,,0.00,WeatherDisplay:10.37,2013-11-04 13:47:00,
2013-11-04 07:52:00,44.9,0.0,30.23,ESE,109,3.5,3.5,0,0.00,CLR,,0.00,WeatherDisplay:10.37,2013-11-04 13:52:00,
2013-11-04 07:57:00,45.1,0.0,30.23,SE,128,5.8,5.8,0,0.00,CLR,,0.00,WeatherDisplay:10.37,2013-11-04 13:57:00,
2013-11-04 08:02:00,45.1,0.0,30.22,SE,128,1.2,1.2,0,0.00,CLR,,0.00,WeatherDisplay:10.37,2013-11-04 14:02:00,
2013-11-04 08:07:00,45.3,0.0,30.23,ESE,114,6.9,6.9,0,0.00,CLR,,0.00,WeatherDisplay:10.37,2013-11-04 14:07:00,
2013-11-04 08:12:00,45.4,0.0,30.25,SE,134,0.0,0.0,0,0.00,CLR,,0.00,WeatherDisplay:10.37,2013-11-04 14:12:00,
2013-11-04 08:17:00,45.6,0.0,30.25,ESE,114,6.9,6.9,0,0.00,CLR,,0.00,WeatherDisplay:10.37,2013-11-04 14:17:00,
2013-11-04 08:22:00,45.7,0.0,30.24,SSE,160,0.0,0.0,0,0.00,CLR,,0.00,WeatherDisplay:10.37,2013-11-04 14:22:00,
2013-11-04 08:27:00,46.0,0.0,30.24,ESE,107,0.0,0.0,0,0.00,CLR,,0.00,WeatherDisplay:10.37,2013-11-04 14:27:00,
2013-11-04 08:32:00,46.4,0.0,30.24,SSE,158,0.0,0.0,0,0.00,CLR,,0.00,WeatherDisplay:10.37,2013-11-04 14:32:00,
2013-11-04 08:37:00,46.8,0.0,30.24,SSE,147,5.8,5.8,0,0.00,CLR,,0.00,WeatherDisplay:10.37,2013-11-04 14:37:00,
2013-11-04 08:42:00,47.4,0.0,30.24,SE,126,5.8,5.8,0,0.00,CLR,,0.00,WeatherDisplay:10.37,2013-11-04 14:42:00,
2013-11-04 08:47:00,47.5,0.0,30.24,ENE,75,6.9,6.9,0,0.00,CLR,,0.00,WeatherDisplay:10.37,2013-11-04 14:47:00,
2013-11-04 08:52:00,47.5,0.0,30.24,SSE,152,10.4,10.4,0,0.00,CLR,,0.00,WeatherDisplay:10.37,2013-11-04 14:52:00,
2013-11-04 08:57:00,47.6,0.0,30.24,ESE,119,8.1,8.1,0,0.00,CLR,,0.00,WeatherDisplay:10.37,2013-11-04 14:57:00,
2013-11-04 09:02:00,47.9,0.0,30.24,ESE,119,5.8,5.8,0,0.00,CLR,,0.00,WeatherDisplay:10.37,2013-11-04 15:02:00,
2013-11-04 09:07:00,48.1,0.0,30.24,East,90,10.4,10.4,0,0.00,CLR,,0.00,WeatherDisplay:10.37,2013-11-04 15:07:00,
2013-11-04 09:12:00,48.1,0.0,30.22,SE,137,9.2,9.2,0,0.00,CLR,,0.00,WeatherDisplay:10.37,2013-11-04 15:12:00,
2013-11-04 09:17:00,48.1,0.0,30.22,ESE,121,10.4,10.4,0,0.00,CLR,,0.00,WeatherDisplay:10.37,2013-11-04 15:17:00,
2013-11-04 09:22:00,48.1,0.0,30.24,ESE,123,8.1,8.1,0,0.00,CLR,,0.00,WeatherDisplay:10.37,2013-11-04 15:22:00,
2013-11-04 09:27:00,48.1,0.0,30.23,ENE,72,8.1,8.1,0,0.00,CLR,,0.00,WeatherDisplay:10.37,2013-11-04 15:27:00,
2013-11-04 09:32:00,48.2,0.0,30.23,East,96,4.6,4.6,0,0.00,CLR,,0.00,WeatherDisplay:10.37,2013-11-04 15:32:00,
2013-11-04 09:37:00,48.1,0.0,30.23,SW,222,8.1,8.1,0,0.00,CLR,,0.00,WeatherDisplay:10.37,2013-11-04 15:37:00,
2013-11-04 09:42:00,48.2,0.0,30.23,ESE,112,5.8,5.8,0,0.00,CLR,,0.00,WeatherDisplay:10.37,2013-11-04 15:42:00,
2013-11-04 09:47:00,48.3,0.0,30.23,SE,134,9.2,9.2,0,0.00,CLR,,0.00,WeatherDisplay:10.37,2013-11-04 15:47:00,
2013-11-04 09:52:00,48.6,0.0,30.23,South,175,11.5,11.5,0,0.00,CLR,,0.00,WeatherDisplay:10.37,2013-11-04 15:52:00,
2013-11-04 09:57:00,48.6,0.0,30.23,ESE,103,5.8,5.8,0,0.00,CLR,,0.00,WeatherDisplay:10.37,2013-11-04 15:57:00,
2013-11-04 10:02:00,48.5,0.0,30.23,ESE,103,6.9,6.9,0,0.00,CLR,,0.00,WeatherDisplay:10.37,2013-11-04 16:02:00,
2013-11-04 10:07:00,49.1,0.0,30.22,South,185,9.4,9.4,0,0.00,CLR,,0.00,WeatherDisplay:10.37,2013-11-04 16:07:00,
2013-11-04 10:12:00,50.0,0.0,30.22,East,86,10.4,10.4,0,0.00,CLR,,0.00,WeatherDisplay:10.37,2013-11-04 16:12:00,
2013-11-04 10:17:00,49.9,0.0,30.22,South,174,10.1,10.1,0,0.00,CLR,,0.00,WeatherDisplay:10.37,2013-11-04 16:17:00,
2013-11-04 10:22:00,50.0,0.0,30.22,East,86,6.9,6.9,0,0.00,CLR,,0.00,WeatherDisplay:10.37,2013-11-04 16:22:00,
2013-11-04 10:27:00,50.2,0.0,30.21,South,182,10.6,10.6,0,0.00,CLR,,0.00,WeatherDisplay:10.37,2013-11-04 16:27:00,
2013-11-04 10:32:00,50.9,0.0,30.21,ESE,121,6.9,6.9,0,0.00,CLR,,0.00,WeatherDisplay:10.37,2013-11-04 16:32:00,
2013-11-04 10:37:00,51.7,0.0,30.21,ESE,121,9.2,9.2,0,0.00,CLR,,0.00,WeatherDisplay:10.37,2013-11-04 16:37:00,
2013-11-04 10:42:00,51.5,0.0,30.20,SE,145,9.2,9.2,0,0.00,CLR,,0.00,WeatherDisplay:10.37,2013-11-04 16:42:00,
2013-11-04 10:47:00,51.6,0.0,30.21,SE,131,10.4,10.4,0,0.00,CLR,,0.00,WeatherDisplay:10.37,2013-11-04 16:47:00,
2013-11-04 10:52:00,52.0,0.0,30.21,South,175,9.2,9.2,0,0.00,CLR,,0.00,WeatherDisplay:10.37,2013-11-04 16:52:00,
2013-11-04 10:57:00,52.4,0.0,30.20,SE,127,11.5,11.5,0,0.00,CLR,,0.00,WeatherDisplay:10.37,2013-11-04 16:57:00,
2013-11-04 11:02:00,52.3,0.0,30.20,SSE,150,4.7,4.7,0,0.00,CLR,,0.00,WeatherDisplay:10.37,2013-11-04 17:02:00,
2013-11-04 11:07:00,52.5,0.0,30.21,ESE,120,8.1,8.1,0,0.00,CLR,,0.00,WeatherDisplay:10.37,2013-11-04 17:07:00,
2013-11-04 11:12:00,52.4,0.0,30.20,South,172,8.1,8.1,0,0.00,CLR,,0.00,WeatherDisplay:10.37,2013-11-04 17:12:00,
2013-11-04 11:17:00,53.4,0.0,30.20,ESE,119,6.9,6.9,0,0.00,CLR,,0.00,WeatherDisplay:10.37,2013-11-04 17:17:00,
2013-11-04 11:22:00,55.1,0.0,30.19,SE,128,8.1,8.1,0,0.00,CLR,,0.00,WeatherDisplay:10.37,2013-11-04 17:22:00,
2013-11-04 11:27:00,55.0,0.0,30.19,SE,130,10.4,10.4,0,0.00,CLR,,0.00,WeatherDisplay:10.37,2013-11-04 17:27:00,
2013-11-04 11:32:00,55.5,0.0,30.18,South,179,15.0,15.0,0,0.00,CLR,,0.00,WeatherDisplay:10.37,2013-11-04 17:32:00,
2013-11-04 11:37:00,55.4,0.0,30.19,SW,215,12.7,12.7,0,0.00,CLR,,0.00,WeatherDisplay:10.37,2013-11-04 17:37:00,
2013-11-04 11:42:00,55.0,0.0,30.20,South,176,8.1,8.1,0,0.00,CLR,,0.00,WeatherDisplay:10.37,2013-11-04 17:42:00,
2013-11-04 11:47:00,54.9,0.0,30.19,SE,145,11.5,11.5,0,0.00,CLR,,0.00,WeatherDisplay:10.37,2013-11-04 17:47:00,
2013-11-04 11:52:00,55.2,0.0,30.19,SSE,154,6.9,6.9,0,0.00,CLR,,0.00,WeatherDisplay:10.37,2013-11-04 17:52:00,
2013-11-04 11:57:00,56.1,0.0,30.19,ESE,123,9.2,9.2,0,0.00,CLR,,0.00,WeatherDisplay:10.37,2013-11-04 17:57:00,
2013-11-04 12:02:00,56.7,0.0,30.18,SSE,165,10.4,10.4,0,0.00,CLR,,0.00,WeatherDisplay:10.37,2013-11-04 18:02:00,
2013-11-04 12:07:00,57.0,0.0,30.18,SSW,195,12.7,12.7,0,0.00,CLR,,0.00,WeatherDisplay:10.37,2013-11-04 18:07:00,
2013-11-04 12:12:00,56.8,0.0,30.18,SSE,150,7.5,7.5,0,0.00,CLR,,0.00,WeatherDisplay:10.37,2013-11-04 18:12:00,
2013-11-04 12:17:00,56.9,0.0,30.18,South,169,15.0,15.0,0,0.00,CLR,,0.00,WeatherDisplay:10.37,2013-11-04 18:17:00,
2013-11-04 12:22:00,57.2,0.0,30.17,South,172,11.5,11.5,0,0.00,CLR,,0.00,WeatherDisplay:10.37,2013-11-04 18:22:00,
2013-11-04 12:27:00,57.2,0.0,30.17,SE,124,10.4,10.4,0,0.00,CLR,,0.00,WeatherDisplay:10.37,2013-11-04 18:27:00,
2013-11-04 12:32:00,57.8,0.0,30.17,SSE,154,10.4,10.4,0,0.00,CLR,,0.00,WeatherDisplay:10.37,2013-11-04 18:32:00,
2013-11-04 12:37:00,58.3,0.0,30.16,ESE,112,10.4,10.4,0,0.00,CLR,,0.00,WeatherDisplay:10.37,2013-11-04 18:37:00,
2013-11-04 12:42:00,58.2,0.0,30.16,South,169,12.7,12.7,0,0.00,CLR,,0.00,WeatherDisplay:10.37,2013-11-04 18:42:00,
2013-11-04 12:47:00,57.0,0.0,30.16,SE,130,16.1,16.1,0,0.00,CLR,,0.00,WeatherDisplay:10.37,2013-11-04 18:47:00,
2013-11-04 12:52:00,57.0,0.0,30.16,South,179,10.4,10.4,0,0.00,CLR,,0.00,WeatherDisplay:10.37,2013-11-04 18:52:00,
2013-11-04 12:57:00,57.7,0.0,30.16,ESE,113,13.8,13.8,0,0.00,CLR,,0.00,WeatherDisplay:10.37,2013-11-04 18:57:00,
2013-11-04 13:02:00,57.8,0.0,30.16,SE,130,18.4,18.4,0,0.00,CLR,,0.00,WeatherDisplay:10.37,2013-11-04 19:02:00,
2013-11-04 13:07:00,57.1,0.0,30.17,SSE,151,19.6,19.6,0,0.00,CLR,,0.00,WeatherDisplay:10.37,2013-11-04 19:07:00,
2013-11-04 13:12:00,57.1,0.0,30.16,SSW,192,11.5,11.5,0,0.00,CLR,,0.00,WeatherDisplay:10.37,2013-11-04 19:12:00,
2013-11-04 13:17:00,57.1,0.0,30.16,SSE,165,9.2,9.2,0,0.00,CLR,,0.00,WeatherDisplay:10.37,2013-11-04 19:17:00,
2013-11-04 13:22:00,56.8,0.0,30.16,South,185,23.0,23.0,0,0.00,CLR,,0.00,WeatherDisplay:10.37,2013-11-04 19:22:00,
2013-11-04 13:27:00,56.6,0.0,30.17,ESE,120,16.1,16.1,0,0.00,CLR,,0.00,WeatherDisplay:10.37,2013-11-04 19:27:00,
2013-11-04 13:32:00,55.9,0.0,30.17,SE,133,11.5,11.5,0,0.00,CLR,,0.00,WeatherDisplay:10.37,2013-11-04 19:32:00,
2013-11-04 13:37:00,55.8,0.0,30.16,SE,143,16.1,16.1,0,0.00,CLR,,0.00,WeatherDisplay:10.37,2013-11-04 19:37:00,
2013-11-04 13:42:00,56.1,0.0,30.15,SSE,162,6.9,6.9,0,0.00,CLR,,0.00,WeatherDisplay:10.37,2013-11-04 19:42:00,
2013-11-04 13:47:00,56.1,0.0,30.16,SE,141,13.8,13.8,0,0.00,CLR,,0.00,WeatherDisplay:10.37,2013-11-04 19:47:00,
2013-11-04 13:52:00,55.8,0.0,30.16,East,95,19.6,19.6,0,0.00,CLR,,0.00,WeatherDisplay:10.37,2013-11-04 19:52:00,
2013-11-04 13:57:00,56.0,0.0,30.17,SSE,162,11.5,11.5,0,0.00,CLR,,0.00,WeatherDisplay:10.37,2013-11-04 19:57:00,
2013-11-04 14:02:00,56.4,0.0,30.17,South,184,10.4,10.4,0,0.00,CLR,,0.00,WeatherDisplay:10.37,2013-11-04 20:02:00,
2013-11-04 14:07:00,57.0,0.0,30.16,ESE,102,11.5,11.5,0,0.00,CLR,,0.00,WeatherDisplay:10.37,2013-11-04 20:07:00,
2013-11-04 14:12:00,57.3,0.0,30.16,South,185,10.6,10.6,0,0.00,CLR,,0.00,WeatherDisplay:10.37,2013-11-04 20:12:00,
2013-11-04 14:17:00,57.4,0.0,30.16,South,175,10.1,10.1,0,0.00,CLR,,0.00,WeatherDisplay:10.37,2013-11-04 20:17:00,
2013-11-04 14:22:00,58.1,0.0,30.16,ESE,120,9.2,9.2,0,0.00,CLR,,0.00,WeatherDisplay:10.37,2013-11-04 20:22:00,
2013-11-04 14:27:00,58.3,0.0,30.16,South,176,17.5,17.5,0,0.00,CLR,,0.00,WeatherDisplay:10.37,2013-11-04 20:27:00,
2013-11-04 14:32:00,57.7,0.0,30.16,SSW,202,12.7,12.7,0,0.00,CLR,,0.00,WeatherDisplay:10.37,2013-11-04 20:32:00,
2013-11-04 14:37:00,57.4,0.0,30.16,SSW,203,13.8,13.8,0,0.00,CLR,,0.00,WeatherDisplay:10.37,2013-11-04 20:37:00,
2013-11-04 14:42:00,57.2,0.0,30.15,SSE,167,16.1,16.1,0,0.00,CLR,,0.00,WeatherDisplay:10.37,2013-11-04 20:42:00,
2013-11-04 14:47:00,57.1,0.0,30.15,SE,134,16.1,16.1,0,0.00,CLR,,0.00,WeatherDisplay:10.37,2013-11-04 20:47:00,
2013-11-04 14:52:00,57.2,0.0,30.16,ESE,114,9.2,9.2,0,0.00,CLR,,0.00,WeatherDisplay:10.37,2013-11-04 20:52:00,
2013-11-04 14:57:00,58.1,0.0,30.16,South,186,12.7,12.7,0,0.00,CLR,,0.00,WeatherDisplay:10.37,2013-11-04 20:57:00,
2013-11-04 15:02:00,58.2,0.0,30.16,South,188,13.8,13.8,0,0.00,CLR,,0.00,WeatherDisplay:10.37,2013-11-04 21:02:00,
2013-11-04 15:07:00,57.5,0.0,30.17,South,178,20.7,20.7,0,0.00,CLR,,0.00,WeatherDisplay:10.37,2013-11-04 21:07:00,
2013-11-04 15:12:00,57.2,0.0,30.16,ESE,103,10.4,10.4,0,0.00,CLR,,0.00,WeatherDisplay:10.37,2013-11-04 21:12:00,
2013-11-04 15:17:00,56.7,0.0,30.17,SSE,150,16.1,16.1,0,0.00,CLR,,0.00,WeatherDisplay:10.37,2013-11-04 21:17:00,
2013-11-04 15:22:00,56.5,0.0,30.17,SSE,165,16.8,16.8,0,0.00,CLR,,0.00,WeatherDisplay:10.37,2013-11-04 21:22:00,
2013-11-04 15:27:00,56.6,0.0,30.17,SE,137,10.4,10.4,0,0.00,CLR,,0.00,WeatherDisplay:10.37,2013-11-04 21:27:00,
2013-11-04 15:32:00,56.5,0.0,30.17,SSW,192,15.0,15.0,0,0.00,CLR,,0.00,WeatherDisplay:10.37,2013-11-04 21:32:00,
2013-11-04 15:37:00,56.3,0.0,30.17,SE,134,16.1,16.1,0,0.00,CLR,,0.00,WeatherDisplay:10.37,2013-11-04 21:37:00,
2013-11-04 15:42:00,56.0,0.0,30.17,SE,130,8.1,8.1,0,0.00,CLR,,0.00,WeatherDisplay:10.37,2013-11-04 21:42:00,
2013-11-04 15:47:00,56.0,0.0,30.16,South,188,15.0,15.0,0,0.00,CLR,,0.00,WeatherDisplay:10.37,2013-11-04 21:47:00,
2013-11-04 15:52:00,55.9,0.0,30.16,South,184,8.8,8.8,0,0.00,CLR,,0.00,WeatherDisplay:10.37,2013-11-04 21:52:00,
2013-11-04 15:57:00,55.8,0.0,30.16,SSE,161,4.6,0.0,0,0.00,CLR,,0.00,WeatherDisplay:10.37,2013-11-04 21:57:00,
2013-11-04 16:02:00,55.7,0.0,30.16,South,175,8.1,8.1,0,0.00,CLR,,0.00,WeatherDisplay:10.37,2013-11-04 22:02:00,
2013-11-04 16:07:00,55.6,0.0,30.15,SSE,155,6.9,6.9,0,0.00,CLR,,0.00,WeatherDisplay:10.37,2013-11-04 22:07:00,
2013-11-04 16:12:00,55.6,0.0,30.15,South,174,6.9,6.9,0,0.00,CLR,,0.00,WeatherDisplay:10.37,2013-11-04 22:12:00,
2013-11-04 16:17:00,55.5,0.0,30.16,WSW,237,10.4,10.4,0,0.00,CLR,,0.00,WeatherDisplay:10.37,2013-11-04 22:17:00,
2013-11-04 16:22:00,55.4,0.0,30.16,SE,141,11.5,11.5,0,0.00,CLR,,0.00,WeatherDisplay:10.37,2013-11-04 22:22:00,
2013-11-04 16:27:00,55.3,0.0,30.16,SE,138,11.5,11.5,0,0.00,CLR,,0.00,WeatherDisplay:10.37,2013-11-04 22:27:00,
2013-11-04 16:32:00,55.1,0.0,30.16,ESE,112,8.1,8.1,0,0.00,CLR,,0.00,WeatherDisplay:10.37,2013-11-04 22:32:00,
2013-11-04 16:37:00,55.0,0.0,30.15,ESE,103,8.1,8.1,0,0.00,CLR,,0.00,WeatherDisplay:10.37,2013-11-04 22:37:00,
2013-11-04 16:42:00,54.8,0.0,30.15,ESE,103,6.9,6.9,0,0.00,CLR,,0.00,WeatherDisplay:10.37,2013-11-04 22:42:00,
2013-11-04 16:47:00,54.7,0.0,30.15,South,179,9.2,9.2,0,0.00,CLR,,0.00,WeatherDisplay:10.37,2013-11-04 22:47:00,
2013-11-04 16:52:00,54.5,0.0,30.15,SSE,155,8.3,8.3,0,0.00,CLR,,0.00,WeatherDisplay:10.37,2013-11-04 22:52:00,
2013-11-04 16:57:00,54.5,0.0,30.16,ESE,112,9.2,9.2,0,0.00,CLR,,0.00,WeatherDisplay:10.37,2013-11-04 22:57:00,
2013-11-04 17:02:00,54.5,0.0,30.16,SSW,193,7.9,7.9,0,0.00,CLR,,0.00,WeatherDisplay:10.37,2013-11-04 23:02:00,
2013-11-04 17:07:00,54.5,0.0,30.16,South,185,12.7,12.7,0,0.00,CLR,,0.00,WeatherDisplay:10.37,2013-11-04 23:07:00,
2013-11-04 17:12:00,54.4,0.0,30.16,SE,126,9.2,9.2,0,0.00,CLR,,0.00,WeatherDisplay:10.37,2013-11-04 23:12:00,
2013-11-04 17:17:00,54.4,0.0,30.16,South,172,9.2,9.2,0,0.00,CLR,,0.00,WeatherDisplay:10.37,2013-11-04 23:17:00,
2013-11-04 17:22:00,54.2,0.0,30.16,ESE,119,4.6,4.6,0,0.00,CLR,,0.00,WeatherDisplay:10.37,2013-11-04 23:22:00,
2013-11-04 17:27:00,54.2,0.0,30.16,SE,131,8.1,8.1,0,0.00,CLR,,0.00,WeatherDisplay:10.37,2013-11-04 23:27:00,
2013-11-04 17:32:00,54.2,0.0,30.16,SSW,205,9.2,9.2,0,0.00,CLR,,0.00,WeatherDisplay:10.37,2013-11-04 23:32:00,
2013-11-04 17:37:00,54.2,0.0,30.16,SSE,158,10.4,10.4,0,0.00,CLR,,0.00,WeatherDisplay:10.37,2013-11-04 23:37:00,
2013-11-04 17:42:00,54.3,0.0,30.17,SSE,147,6.9,6.9,0,0.00,CLR,,0.00,WeatherDisplay:10.37,2013-11-04 23:42:00,
2013-11-04 17:47:00,54.2,0.0,30.17,SE,143,6.9,6.9,0,0.00,CLR,,0.00,WeatherDisplay:10.37,2013-11-04 23:47:00,
2013-11-04 17:52:00,54.0,0.0,30.17,South,171,10.5,10.5,0,0.00,CLR,,0.00,WeatherDisplay:10.37,2013-11-04 23:52:00,
2013-11-04 17:57:00,53.9,0.0,30.18,SSE,162,7.5,7.5,0,0.00,CLR,,0.00,WeatherDisplay:10.37,2013-11-04 23:57:00,
2013-11-04 18:02:00,53.5,0.0,30.18,SSE,164,8.1,8.1,0,0.00,CLR,,0.00,WeatherDisplay:10.37,2013-11-05 00:02:00,
2013-11-04 18:07:00,53.5,0.0,30.18,SSE,157,9.2,9.2,0,0.00,CLR,,0.00,WeatherDisplay:10.37,2013-11-05 00:07:00,
2013-11-04 18:12:00,53.4,0.0,30.18,East,83,5.8,5.8,0,0.00,CLR,,0.00,WeatherDisplay:10.37,2013-11-05 00:12:00,
2013-11-04 18:17:00,53.3,0.0,30.18,ESE,121,8.1,8.1,0,0.00,CLR,,0.00,WeatherDisplay:10.37,2013-11-05 00:17:00,
2013-11-04 18:22:00,53.1,0.0,30.18,SSE,162,6.9,6.9,0,0.00,CLR,,0.00,WeatherDisplay:10.37,2013-11-05 00:22:00,
2013-11-04 18:27:00,52.9,0.0,30.18,ESE,116,4.6,4.6,0,0.00,CLR,,0.00,WeatherDisplay:10.37,2013-11-05 00:27:00,
2013-11-04 18:32:00,52.8,0.0,30.18,ENE,65,4.6,4.6,0,0.00,CLR,,0.00,WeatherDisplay:10.37,2013-11-05 00:32:00,
2013-11-04 18:37:00,52.8,0.0,30.18,ENE,65,0.0,0.0,0,0.00,CLR,,0.00,WeatherDisplay:10.37,2013-11-05 00:37:00,
2013-11-04 18:42:00,52.4,0.0,30.18,SSE,165,0.0,0.0,0,0.00,CLR,,0.00,WeatherDisplay:10.37,2013-11-05 00:42:00,
2013-11-04 18:47:00,52.6,0.0,30.18,East,93,4.6,4.6,0,0.00,CLR,,0.00,WeatherDisplay:10.37,2013-11-05 00:47:00,
2013-11-04 18:52:00,52.4,0.0,30.19,ESE,109,4.6,4.6,0,0.00,CLR,,0.00,WeatherDisplay:10.37,2013-11-05 00:52:00,
2013-11-04 18:57:00,52.5,0.0,30.18,East,97,4.6,4.6,0,0.00,CLR,,0.00,WeatherDisplay:10.37,2013-11-05 00:57:00,
2013-11-04 19:02:00,52.5,0.0,30.19,SSE,154,5.8,5.8,0,0.00,CLR,,0.00,WeatherDisplay:10.37,2013-11-05 01:02:00,
2013-11-04 19:07:00,52.4,0.0,30.18,SE,126,6.9,6.9,0,0.00,CLR,,0.00,WeatherDisplay:10.37,2013-11-05 01:07:00,
2013-11-04 19:12:00,52.3,0.0,30.18,ENE,72,6.5,6.5,0,0.00,CLR,,0.00,WeatherDisplay:10.37,2013-11-05 01:12:00,
2013-11-04 19:17:00,52.1,0.0,30.18,SSE,157,11.5,11.5,0,0.00,CLR,,0.00,WeatherDisplay:10.37,2013-11-05 01:17:00,
2013-11-04 19:22:00,52.2,0.0,30.18,SE,124,5.8,5.8,0,0.00,CLR,,0.00,WeatherDisplay:10.37,2013-11-05 01:22:00,
2013-11-04 19:27:00,52.2,0.0,30.19,ESE,117,10.4,10.4,0,0.00,CLR,,0.00,WeatherDisplay:10.37,2013-11-05 01:27:00,
2013-11-04 19:32:00,52.2,0.0,30.19,ESE,117,0.0,0.0,0,0.00,CLR,,0.00,WeatherDisplay:10.37,2013-11-05 01:32:00,
2013-11-04 19:37:00,51.9,0.0,30.19,East,89,3.5,0.0,0,0.00,CLR,,0.00,WeatherDisplay:10.37,2013-11-05 01:37:00,
2013-11-04 19:42:00,51.9,0.0,30.19,SSW,203,8.5,8.5,0,0.00,CLR,,0.00,WeatherDisplay:10.37,2013-11-05 01:42:00,
2013-11-04 19:47:00,52.3,0.0,30.19,SE,145,3.5,3.5,0,0.00,CLR,,0.00,WeatherDisplay:10.37,2013-11-05 01:47:00,
2013-11-04 19:52:00,52.6,0.0,30.19,South,174,10.4,10.4,0,0.00,CLR,,0.00,WeatherDisplay:10.37,2013-11-05 01:52:00,
2013-11-04 19:57:00,52.8,0.0,30.20,SSW,206,8.1,8.1,0,0.00,CLR,,0.00,WeatherDisplay:10.37,2013-11-05 01:57:00,
2013-11-04 20:02:00,52.9,0.0,30.20,SE,134,6.9,6.9,0,0.00,CLR,,0.00,WeatherDisplay:10.37,2013-11-05 02:02:00,
2013-11-04 20:07:00,52.8,0.0,30.20,ESE,112,4.6,4.6,0,0.00,CLR,,0.00,WeatherDisplay:10.37,2013-11-05 02:07:00,
2013-11-04 20:12:00,52.8,0.0,30.20,SE,144,8.1,8.1,0,0.00,CLR,,0.00,WeatherDisplay:10.37,2013-11-05 02:12:00,
2013-11-04 20:17:00,52.7,0.0,30.21,SE,127,11.5,11.5,0,0.00,CLR,,0.00,WeatherDisplay:10.37,2013-11-05 02:17:00,
2013-11-04 20:22:00,52.7,0.0,30.21,SE,131,8.1,8.1,0,0.00,CLR,,0.00,WeatherDisplay:10.37,2013-11-05 02:22:00,
2013-11-04 20:27:00,52.6,0.0,30.21,SW,215,6.9,6.9,0,0.00,CLR,,0.00,WeatherDisplay:10.37,2013-11-05 02:27:00,
2013-11-04 20:32:00,52.6,0.0,30.21,ESE,106,9.2,9.2,0,0.00,CLR,,0.00,WeatherDisplay:10.37,2013-11-05 02:32:00,
2013-11-04 20:37:00,52.5,0.0,30.21,SSE,167,9.2,9.2,0,0.00,CLR,,0.00,WeatherDisplay:10.37,2013-11-05 02:37:00,
2013-11-04 20:42:00,52.5,0.0,30.21,SSE,164,12.7,12.7,0,0.00,CLR,,0.00,WeatherDisplay:10.37,2013-11-05 02:42:00,
2013-11-04 20:47:00,52.4,0.0,30.22,South,174,9.2,9.2,0,0.00,CLR,,0.00,WeatherDisplay:10.37,2013-11-05 02:47:00,
2013-11-04 20:52:00,52.4,0.0,30.22,South,188,9.2,9.2,0,0.00,CLR,,0.00,WeatherDisplay:10.37,2013-11-05 02:52:00,
2013-11-04 20:57:00,52.3,0.0,30.22,ESE,123,5.0,5.0,0,0.00,CLR,,0.00,WeatherDisplay:10.37,2013-11-05 02:57:00,
2013-11-04 21:02:00,52.3,0.0,30.22,ESE,112,8.1,8.1,0,0.00,CLR,,0.00,WeatherDisplay:10.37,2013-11-05 03:02:00,
2013-11-04 21:07:00,52.2,0.0,30.22,ESE,113,2.3,0.0,0,0.00,CLR,,0.00,WeatherDisplay:10.37,2013-11-05 03:07:00,
2013-11-04 21:12:00,52.2,0.0,30.22,SSE,165,6.9,6.9,0,0.00,CLR,,0.00,WeatherDisplay:10.37,2013-11-05 03:12:00,
2013-11-04 21:17:00,52.1,0.0,30.22,East,83,5.8,5.8,0,0.00,CLR,,0.00,WeatherDisplay:10.37,2013-11-05 03:17:00,
2013-11-04 21:22:00,52.1,0.0,30.22,SSE,152,9.2,9.2,0,0.00,CLR,,0.00,WeatherDisplay:10.37,2013-11-05 03:22:00,
2013-11-04 21:27:00,52.0,0.0,30.22,SSE,164,9.2,9.2,0,0.00,CLR,,0.00,WeatherDisplay:10.37,2013-11-05 03:27:00,
2013-11-04 21:32:00,51.9,0.0,30.22,ESE,109,3.3,3.3,0,0.00,CLR,,0.00,WeatherDisplay:10.37,2013-11-05 03:32:00,
2013-11-04 21:37:00,51.9,0.0,30.22,ESE,114,6.9,6.9,0,0.00,CLR,,0.00,WeatherDisplay:10.37,2013-11-05 03:37:00,
2013-11-04 21:42:00,51.8,0.0,30.22,SE,134,5.8,5.8,0,0.00,CLR,,0.00,WeatherDisplay:10.37,2013-11-05 03:42:00,
2013-11-04 21:47:00,51.8,0.0,30.22,South,175,5.8,5.8,0,0.00,CLR,,0.00,WeatherDisplay:10.37,2013-11-05 03:47:00,
2013-11-04 21:52:00,51.7,0.0,30.22,SSW,193,3.5,3.5,0,0.00,CLR,,0.00,WeatherDisplay:10.37,2013-11-05 03:52:00,
2013-11-04 21:57:00,51.6,0.0,30.22,South,181,4.6,4.6,0,0.00,CLR,,0.00,WeatherDisplay:10.37,2013-11-05 03:57:00,
2013-11-04 22:02:00,51.4,0.0,30.22,SE,128,5.8,5.8,0,0.00,CLR,,0.00,WeatherDisplay:10.37,2013-11-05 04:02:00,
2013-11-04 22:07:00,51.2,0.0,30.22,SSE,155,5.8,5.8,0,0.00,CLR,,0.00,WeatherDisplay:10.37,2013-11-05 04:07:00,
2013-11-04 22:12:00,51.1,0.0,30.22,South,189,5.5,5.5,0,0.00,CLR,,0.00,WeatherDisplay:10.37,2013-11-05 04:12:00,
2013-11-04 22:17:00,51.2,0.0,30.22,South,172,4.7,4.7,0,0.00,CLR,,0.00,WeatherDisplay:10.37,2013-11-05 04:17:00,
2013-11-04 22:22:00,51.3,0.0,30.22,South,175,10.4,10.4,0,0.00,CLR,,0.00,WeatherDisplay:10.37,2013-11-05 04:22:00,
2013-11-04 22:27:00,51.4,0.0,30.22,SE,137,4.6,4.6,0,0.00,CLR,,0.00,WeatherDisplay:10.37,2013-11-05 04:27:00,
2013-11-04 22:32:00,51.4,0.0,30.22,South,185,6.9,6.9,0,0.00,CLR,,0.00,WeatherDisplay:10.37,2013-11-05 04:32:00,
2013-11-04 22:37:00,51.6,0.0,30.22,SE,138,5.8,5.8,0,0.00,CLR,,0.00,WeatherDisplay:10.37,2013-11-05 04:37:00,
2013-11-04 22:42:00,51.6,0.0,30.22,SSW,199,9.2,9.2,0,0.00,CLR,,0.00,WeatherDisplay:10.37,2013-11-05 04:42:00,
2013-11-04 22:47:00,51.4,0.0,30.22,SSE,155,9.2,9.2,0,0.00,CLR,,0.00,WeatherDisplay:10.37,2013-11-05 04:47:00,
2013-11-04 22:52:00,51.6,0.0,30.22,South,174,10.4,10.4,0,0.00,CLR,,0.00,WeatherDisplay:10.37,2013-11-05 04:52:00,
2013-11-04 22:57:00,51.4,0.0,30.22,SW,215,6.9,6.9,0,0.00,CLR,,0.00,WeatherDisplay:10.37,2013-11-05 04:57:00,
2013-11-04 23:01:00,51.4,0.0,30.22,SSW,202,5.8,5.8,0,0.00,CLR,,0.00,WeatherDisplay:10.37,2013-11-05 05:01:00,
2013-11-04 23:03:00,51.4,0.0,30.22,South,175,8.1,8.1,0,0.00,CLR,,0.00,WeatherDisplay:10.37,2013-11-05 05:03:00,
2013-11-04 23:08:00,51.3,0.0,30.22,South,172,8.1,8.1,0,0.00,CLR,,0.00,WeatherDisplay:10.37,2013-11-05 05:08:00,
2013-11-04 23:13:00,51.4,0.0,30.22,SSE,151,0.0,0.0,0,0.00,CLR,,0.00,WeatherDisplay:10.37,2013-11-05 05:13:00,
2013-11-04 23:18:00,51.3,0.0,30.22,South,182,2.3,2.3,0,0.00,CLR,,0.00,WeatherDisplay:10.37,2013-11-05 05:18:00,
2013-11-04 23:23:00,51.6,0.0,30.22,SSE,162,7.5,8.1,0,0.00,CLR,,0.00,WeatherDisplay:10.37,2013-11-05 05:23:00,
2013-11-04 23:28:00,51.7,0.0,30.22,ESE,107,2.3,0.0,0,0.00,CLR,,0.00,WeatherDisplay:10.37,2013-11-05 05:28:00,
2013-11-04 23:33:00,51.9,0.0,30.22,SSW,196,3.5,3.5,0,0.00,CLR,,0.00,WeatherDisplay:10.37,2013-11-05 05:33:00,
2013-11-04 23:38:00,51.9,0.0,30.22,South,169,9.2,9.2,0,0.00,CLR,,0.00,WeatherDisplay:10.37,2013-11-05 05:38:00,
2013-11-04 23:43:00,51.9,0.0,30.22,ESE,121,10.4,10.4,0,0.00,CLR,,0.00,WeatherDisplay:10.37,2013-11-05 05:43:00,
2013-11-04 23:48:00,51.8,0.0,30.22,SSE,148,4.6,4.6,0,0.00,CLR,,0.00,WeatherDisplay:10.37,2013-11-05 05:48:00,
2013-11-04 23:53:00,51.4,0.0,30.23,South,179,0.0,0.0,0,0.00,CLR,,0.00,WeatherDisplay:10.37,2013-11-05 05:53:00,
2013-11-04 23:58:00,51.0,0.0,30.23,South,182,0.0,0.0,0,0.00,CLR,,0.00,WeatherDisplay:10.37,2013-11-05 05:58:00,